Temperature
17 16 16 16 16 16 16 16 16 16 16 16 16 16 16 16 16 15 15 15 15 15 15 15 15 15 15 15 15 15 15 15 15 15 15 15 15 15 14 14 14 14 14
17 16 16 16 16 16 16 16 16 16 16 16 16 16 16 16 15 15 15 15 15 15 15 15 15 15 15 15 15 15 15 15 15 15 14 14 14 14 14 14 14 14 14
17 16 16 16 16 16 16 16 16 16 16 16 16 16 16 16 15 15 15 15 15 15 15 15 15 15 15 15 15 15 14 14 14 14 14 14 14 14 14 14 14 14 14
16 16 16 15 16 16 16 16 16 15 15 15 15 16 15 15 15 15 15 15 15 15 15 15 15 15 15 15 14 14 14 14 14 14 14 14 14 14 14 14 14 14 14
16 16 16 15 15 15 16 16 15 15 15 15 15 15 15 15 15 15 15 15 15 15 15 15 15 14 14 14 14 14 14 14 14 14 13 13 13 13 14 14 14 14 14
16 15 15 15 15 15 15 15 15 15 15 15 15 15 15 15 15 15 15 15 15 15 14 14 14 14 14 14 14 14 14 14 14 13 13 13 13 13 13 13 13 13 13
15 15 15 15 15 15 15 15 15 15 15 15 15 15 15 15 15 14 14 14 14 14 14 14 14 14 14 14 14 14 14 13 13 13 13 13 13 13 13 13 13 13 13
15 14 14 14 15 15 14 15 15 15 15 15 15 14 14 14 14 14 14 14 14 14 14 14 14 14 14 13 13 13 13 13 13 13 13 13 13 13 13 13 13 13 13
14 14 14 14 14 14 14 14 14 14 14 14 14 14 14 14 14 14 14 14 14 14 14 14 13 13 13 13 13 13 13 13 13 13 13 12 12 13 13 13 13 12 12
14 14 14 14 14 14 14 14 14 14 14 14 14 14 14 14 14 14 14 13 13 13 13 13 13 13 13 13 13 13 13 13 13 12 12 12 12 12 12 12 12 12 12
14 13 14 14 14 13 13 14 13 14 14 14 14 14 13 13 13 13 13 13 13 13 13 13 13 13 13 13 13 13 13 12 12 12 12 12 12 12 12 12 12 12 12
13 13 13 13 13 13 13 13 13 13 13 13 13 13 13 13 13 13 13 13 13 13 13 13 13 13 13 13 12 12 12 12 12 12 12 11 11 11 11 11 11 11 11
13 13 13 13 13 13 13 13 13 13 13 13 13 13 13 13 13 12 12 12 12 12 12 12 12 12 12 12 12 12 12 12 12 12 11 11 11 11 11 11 11 11 11
13 13 13 13 13 13 13 13 13 13 12 13 13 13 12 12 12 12 12 12 12 12 12 12 12 12 12 12 12 12 11 11 11 11 11 11 11 11 11 11 11 11 11
12 13 12 12 12 12 12 12 12 12 12 12 12 12 12 12 12 12 12 12 12 11 11 11 11 11 11 11 11 11 11 11 11 11 11 11 10 10 10 10 10 10 10
12 12 12 12 12 12 12 12 12 12 12 12 12 12 12 12 12 12 11 11 11 11 11 11 11 11 11 11 11 11 11 10 10 10 10 10 10 10 10 10 10 10 10
12 12 12 12 12 12 12 12 12 12 12 12 11 11 11 11 11 11 11 11 11 11 10 10 10 10 10 10 10 10 10 10 10 10 10 10 10 10 10 10 10 10 9
11 11 11 11 11 11 11 11 11 11 11 11 11 11 11 11 11 11 11 10 10 10 10 10 10 10 10 10 10 10 10 10 9 9 9 9 9 9 9 9 9 9 9
11 11 11 11 11 11 11 11 11 11 11 11 11 11 11 11 11 10 10 10 10 10 10 9 9 9 9 9 9 9 9 9 9 9 9 9 9 9 9 9 9 9 8
10 10 10 10 10 11 10 10 10 10 10 10 10 10 10 10 10 10 10 10 9 9 9 9 9 9 9 9 9 9 9 9 9 9 9 9 9 9 9 8 9 8 8
10 10 10 10 10 10 10 10 10 10 10 10 10 10 10 10 10 10 9 9 9 9 9 9 9 8 8 8 8 8 8 8 8 8 8 8 8 8 8 8 8 8 8
9 9 9 9 9 10 10 10 10 10 9 9 9 9 9 9 9 9 9 9 9 9 9 8 8 8 8 8 8 7 7 7 8 8 8 8 8 8 8 8 8 8 8
8 9 9 9 9 9 9 9 9 9 9 9 9 9 9 9 9 9 9 9 8 8 8 8 8 8 8 8 7 7 7 7 7 7 7 7 7 7 7 7 7 7 7
7 8 8 8 8 9 9 8 8 8 9 9 9 8 8 8 8 8 8 8 8 8 8 8 8 8 7 7 7 7 7 7 7 7 7 7 7 7 7 7 7 7 7
7 7 7 8 8 8 8 8 8 8 8 8 8 8 8 8 8 8 8 8 8 7 7 7 7 7 7 7 7 7 7 7 7 7 7 7 7 7 7 7 7 6 6
6 6 7 7 7 7 7 7 7 7 7 7 7 7 7 7 7 7 7 7 7 7 7 7 7 7 7 7 7 7 7 7 7 7 7 7 7 6 6 6 6 6 6
Wind_Speed
5 8 14 15 15 15 15 14 15 15 15 15 15 15 15 15 15 14 14 14 14 14 14 14 15 16 16 16 16 16 17 17 17 16 16 17 17 17 16 16 15 15 17
8 11 14 16 15 15 15 14 14 15 15 15 15 15 14 14 14 14 13 13 13 13 13 14 15 15 16 16 16 16 16 16 16 16 16 16 16 16 16 15 14 14 16
9 11 14 16 16 15 15 15 14 14 14 14 14 14 14 13 13 13 13 13 13 13 13 14 14 15 15 15 15 15 15 15 15 15 14 14 14 16 16 16 15 15 15
10 11 13 15 15 15 15 15 14 14 14 13 13 13 13 13 13 13 13 13 13 13 14 14 14 14 15 15 14 14 15 15 14 14 13 12 12 15 15 15 15 15 15
8 10 13 16 15 15 15 15 15 14 14 13 13 13 13 13 13 13 13 13 13 13 13 13 13 14 14 14 14 14 14 14 14 14 13 12 12 14 14 14 14 15 15
7 9 13 16 15 15 15 15 14 14 14 13 13 12 12 12 13 13 13 13 13 13 13 13 13 13 13 13 13 14 14 14 14 13 12 12 11 13 14 14 14 14 14
7 8 11 14 14 14 15 14 14 14 13 13 13 12 12 12 12 13 13 13 13 13 13 12 12 13 13 13 13 13 14 14 13 12 11 11 11 12 13 13 13 13 13
7 6 9 13 14 13 14 13 13 13 13 13 12 12 12 12 13 13 13 13 13 12 12 12 12 12 12 12 13 13 13 13 12 11 10 10 11 11 12 12 12 12 12
6 6 6 8 11 12 13 13 12 12 12 12 12 12 12 12 13 13 13 12 12 12 12 12 12 12 12 13 13 13 13 13 12 10 9 9 10 10 11 11 11 12 11
5 5 5 6 8 8 10 12 12 11 11 12 12 12 12 12 12 12 12 12 12 11 11 11 11 11 12 12 12 13 13 12 11 10 9 9 9 9 10 11 11 11 11
4 3 4 5 6 7 8 9 10 10 10 11 11 12 11 10 10 10 11 11 11 11 11 11 11 12 12 11 12 12 11 10 10 8 7 8 9 9 9 10 11 11 11
5 3 3 4 5 6 6 8 8 8 9 9 10 10 10 10 9 9 10 11 11 11 11 11 11 12 11 10 10 10 10 10 9 7 7 8 8 8 9 9 10 10 10
6 4 3 4 5 5 5 6 6 7 7 8 9 10 10 9 8 8 8 8 9 9 9 10 10 10 10 9 9 9 10 9 8 6 7 8 7 7 8 8 9 9 9
6 5 4 4 4 5 6 5 6 6 6 6 8 10 9 7 6 6 6 7 7 7 8 8 9 9 10 9 10 9 9 8 7 7 6 7 7 7 7 7 8 8 8
6 5 4 4 5 5 5 5 5 5 5 6 7 8 9 7 5 5 5 6 7 7 7 7 7 8 8 8 8 8 7 7 7 7 6 7 7 7 6 6 6 7 7
5 5 4 5 5 6 5 4 4 5 6 6 6 7 9 8 7 6 5 5 6 7 7 7 7 7 6 7 6 7 6 6 7 7 7 7 7 7 6 5 6 7 7
4 4 4 5 5 5 5 5 5 5 6 5 5 6 7 8 8 7 5 4 5 7 8 8 7 7 6 5 5 5 5 6 6 6 6 7 7 6 6 6 6 6 6
3 4 4 4 5 5 4 4 4 5 5 5 5 5 6 7 8 7 5 4 6 8 7 6 5 4 4 3 3 3 4 5 5 5 6 6 6 6 6 6 6 6 6
3 4 4 4 5 5 4 4 4 4 4 4 5 5 5 6 7 7 5 5 7 7 5 5 3 3 4 4 4 3 3 3 4 4 5 5 5 6 6 6 6 6 5
3 3 4 4 4 4 4 4 3 3 3 3 4 4 5 6 7 7 5 6 7 5 4 4 5 4 4 4 4 4 3 3 3 3 3 4 4 5 5 6 6 5 4
3 3 3 3 4 4 3 3 3 2 2 2 2 4 5 6 7 6 4 5 5 4 5 6 4 5 3 3 3 3 3 2 2 2 3 3 3 4 5 5 4 5 4
2 2 2 3 3 4 3 2 2 2 2 1 2 3 4 5 6 6 5 4 5 5 5 5 5 4 2 3 3 3 1 1 1 2 2 2 2 3 3 3 3 4 3
1 1 1 2 2 3 3 3 3 3 2 1 1 1 2 5 6 6 6 6 5 5 6 5 6 6 4 2 2 3 3 3 1 1 0 1 1 1 1 2 2 2 2
1 1 1 1 2 2 3 4 4 3 2 3 2 2 2 4 5 6 6 6 5 4 5 6 5 4 6 4 2 1 2 3 3 1 1 0 0 1 1 1 2 1 1
2 1 1 1 1 2 3 4 4 3 2 1 1 2 2 2 3 5 6 6 5 4 5 5 5 5 4 5 4 2 2 2 2 2 2 1 1 1 1 2 2 2 1
3 3 2 2 1 1 2 3 4 4 3 3 3 3 2 2 2 4 5 6 6 5 5 5 6 6 5 5 4 3 3 3 3 2 2 2 2 2 1 1 2 3 2
Wind_Direction
174 170 161 154 149 145 140 135 129 125 123 123 123 123 122 120 117 113 110 108 104 101 99 99 97 95 93 93 92 90 88 85 83 81 80 81 81 81 80 78 77 76 79
155 163 158 154 150 146 143 137 132 128 126 125 124 124 123 122 119 116 113 111 108 104 101 100 97 96 95 94 94 92 90 87 85 82 81 81 83 83 82 79 80 81 80
143 156 156 152 151 147 144 140 135 132 129 127 126 125 125 123 122 119 116 114 110 107 104 101 98 97 96 96 96 95 92 88 85 82 79 79 83 84 82 80 79 81 81
144 151 153 152 151 149 145 142 140 137 134 130 127 127 125 122 121 119 117 115 112 108 105 102 100 99 99 97 96 96 93 88 84 80 74 74 81 85 83 81 79 79 81
139 147 154 153 151 150 146 143 142 140 136 132 129 127 125 124 122 120 118 115 113 110 106 104 102 101 101 99 97 96 93 90 84 79 74 73 79 84 83 82 82 80 78
134 142 154 154 153 150 148 146 144 142 138 135 132 129 128 127 125 122 120 117 113 110 107 104 102 104 103 101 99 97 96 92 86 79 75 75 78 84 85 84 83 80 78
133 138 152 155 154 152 150 147 145 144 143 140 136 133 131 130 128 124 122 119 115 112 108 106 104 106 104 104 101 100 98 94 89 80 77 77 81 84 84 83 81 80 78
133 133 147 152 152 152 151 148 146 146 145 143 139 135 129 126 125 124 123 122 118 115 112 108 105 106 104 103 102 103 101 96 91 83 80 80 83 84 84 84 81 81 80
116 116 122 137 144 149 151 148 147 146 144 142 137 133 128 125 124 124 124 123 121 117 115 111 109 107 103 101 102 103 103 99 94 87 84 84 86 86 85 84 84 81 80
106 107 109 118 125 131 140 146 145 143 142 139 134 129 125 123 124 123 122 124 123 120 116 113 113 109 104 102 102 102 101 96 91 87 87 90 89 89 89 87 85 80 79
117 105 106 106 112 120 127 137 138 137 138 134 130 127 121 116 118 120 121 122 121 121 119 116 116 111 104 101 102 102 98 95 92 88 90 96 96 94 93 90 86 83 81
158 141 121 118 116 118 122 123 124 123 124 127 126 123 118 114 113 116 121 121 117 116 118 117 115 110 101 98 98 98 96 95 91 88 94 101 101 98 96 94 89 87 84
167 156 147 136 127 122 118 121 119 119 118 120 126 128 122 114 110 108 107 108 108 110 107 110 105 102 102 101 98 97 96 93 88 84 95 99 99 99 98 96 94 91 87
161 169 158 139 130 125 123 123 125 124 124 126 132 136 129 116 109 109 106 107 104 108 106 106 104 104 101 102 102 98 94 91 85 80 93 96 97 97 98 100 101 97 92
171 172 164 148 144 134 127 124 124 127 133 138 140 143 141 132 129 122 116 114 111 114 114 112 111 107 103 99 98 98 93 89 86 79 81 90 94 97 98 102 104 103 98
186 181 167 157 153 139 135 132 132 136 135 134 140 147 148 144 142 135 127 123 121 124 126 123 119 115 105 103 94 95 94 91 86 82 79 80 83 86 93 105 104 102 96
185 179 170 165 149 144 139 135 138 144 140 139 144 149 151 149 148 142 135 129 132 133 127 119 111 107 100 96 89 91 92 89 90 87 85 82 77 76 82 92 95 93 90
160 166 169 160 147 146 139 135 134 141 139 141 145 146 150 153 154 144 139 138 141 136 130 123 121 113 101 95 86 74 78 85 86 90 89 85 81 74 74 86 91 85 79
155 151 153 145 148 147 134 124 119 126 131 140 142 145 153 155 158 150 145 145 145 135 132 134 126 128 124 110 94 70 60 69 76 86 85 88 89 84 77 76 79 75 69
126 128 136 134 133 132 124 109 99 98 109 127 142 154 158 158 159 153 147 148 146 136 137 137 135 119 123 122 102 73 50 46 66 74 81 90 95 92 85 77 75 72 65
78 100 124 132 137 136 135 140 137 143 142 141 147 158 162 162 160 156 149 147 150 154 156 150 139 133 125 125 103 73 38 42 57 57 73 87 88 94 92 86 81 76 60
88 96 122 141 147 155 156 151 143 135 136 144 140 144 162 167 168 167 156 158 161 156 154 158 147 143 137 150 134 125 102 13 12 40 56 84 83 92 94 95 95 84 69
55 109 148 154 150 153 144 124 104 85 75 90 140 169 172 174 174 171 169 162 167 166 171 172 167 158 160 168 147 149 154 196 239 342 40 69 94 87 103 117 114 106 88
338 19 106 131 143 146 142 153 159 167 180 194 189 189 173 177 178 178 174 168 169 170 173 180 176 171 162 171 159 114 133 148 150 177 302 317 103 154 188 168 151 155 128
10 33 67 111 120 139 153 166 171 178 181 160 149 171 188 182 184 184 179 172 175 178 178 177 176 177 173 172 168 157 123 87 118 154 207 254 281 256 224 210 193 197 202
25 33 40 65 70 127 159 174 180 181 173 166 180 190 200 195 187 195 187 183 181 180 183 186 183 182 183 174 171 168 162 162 175 159 179 220 241 266 252 233 210 212 210
Height
1511 1514 1517 1519 1522 1524 1526 1528 1530 1532 1533 1535 1536 1538 1539 1540 1542 1543 1544 1545 1546 1547 1548 1549 1549 1550 1551 1551 1552 1553 1553 1554 1554 1555 1556 1556 1556 1557 1557 1557 1558 1558 1558
1510 1513 1516 1519 1522 1524 1526 1528 1530 1532 1534 1535 1537 1538 1540 1541 1542 1544 1545 1546 1547 1548 1549 1550 1550 1551 1552 1553 1553 1554 1555 1555 1556 1557 1557 1558 1558 1558 1559 1559 1559 1560 1560
1510 1513 1516 1519 1522 1524 1526 1528 1530 1532 1534 1536 1537 1539 1540 1541 1543 1544 1545 1547 1548 1549 1549 1550 1551 1552 1553 1554 1554 1555 1556 1557 1557 1558 1559 1559 1560 1560 1560 1561 1561 1561 1561
1510 1513 1516 1519 1521 1524 1526 1528 1530 1532 1534 1536 1538 1539 1540 1542 1543 1544 1546 1547 1548 1549 1550 1551 1552 1553 1554 1555 1555 1556 1557 1558 1558 1559 1560 1560 1561 1562 1562 1562 1562 1562 1563
1510 1513 1516 1519 1521 1524 1526 1528 1530 1532 1534 1536 1538 1539 1541 1542 1544 1545 1546 1547 1549 1550 1551 1552 1553 1554 1555 1556 1557 1557 1558 1559 1560 1560 1561 1562 1562 1563 1563 1563 1564 1564 1564
1510 1513 1516 1519 1521 1523 1526 1528 1530 1532 1534 1536 1538 1539 1541 1542 1544 1545 1547 1548 1549 1550 1551 1552 1553 1554 1555 1556 1558 1558 1559 1560 1561 1562 1562 1563 1564 1564 1564 1564 1565 1565 1565
1510 1513 1516 1519 1521 1523 1526 1528 1530 1532 1534 1536 1537 1539 1541 1542 1544 1545 1547 1548 1549 1551 1552 1553 1554 1555 1556 1557 1558 1559 1560 1561 1562 1563 1563 1564 1565 1565 1565 1565 1565 1566 1565
1511 1513 1516 1519 1521 1523 1525 1527 1529 1531 1533 1535 1537 1539 1541 1542 1544 1545 1547 1548 1549 1551 1552 1553 1554 1555 1556 1557 1559 1560 1561 1562 1563 1564 1564 1565 1566 1566 1566 1566 1566 1566 1566
1511 1513 1516 1518 1520 1522 1525 1527 1529 1531 1533 1535 1537 1539 1540 1542 1544 1545 1547 1548 1549 1551 1552 1553 1554 1556 1557 1558 1559 1560 1561 1563 1563 1564 1565 1565 1566 1566 1566 1567 1567 1567 1567
1511 1513 1515 1517 1519 1522 1524 1526 1528 1531 1533 1534 1536 1538 1540 1542 1543 1545 1546 1548 1549 1551 1552 1553 1555 1556 1557 1558 1560 1561 1562 1563 1564 1564 1565 1566 1566 1567 1567 1567 1567 1567 1567
1510 1512 1514 1516 1518 1521 1523 1525 1527 1530 1532 1534 1536 1538 1539 1541 1543 1545 1546 1547 1549 1550 1552 1553 1554 1556 1557 1559 1560 1561 1562 1563 1564 1565 1565 1566 1567 1567 1567 1567 1567 1568 1567
1507 1510 1513 1515 1517 1519 1522 1524 1526 1528 1530 1533 1535 1536 1538 1540 1542 1544 1545 1547 1548 1550 1551 1553 1554 1556 1557 1558 1560 1561 1562 1563 1564 1565 1566 1566 1567 1567 1567 1567 1568 1568 1568
1506 1509 1511 1514 1516 1518 1520 1523 1525 1527 1529 1531 1533 1535 1537 1539 1541 1543 1544 1546 1547 1549 1550 1552 1554 1555 1557 1558 1559 1561 1562 1563 1564 1564 1565 1566 1567 1567 1567 1567 1568 1568 1568
1504 1507 1510 1512 1515 1517 1519 1521 1524 1526 1528 1530 1532 1534 1536 1537 1539 1541 1543 1545 1546 1548 1549 1551 1553 1554 1556 1558 1559 1560 1561 1562 1563 1564 1565 1566 1566 1567 1567 1567 1567 1567 1568
1502 1505 1508 1510 1513 1515 1518 1520 1522 1524 1526 1528 1530 1532 1534 1536 1538 1540 1542 1543 1545 1547 1549 1550 1552 1554 1555 1557 1558 1559 1560 1562 1563 1564 1564 1565 1566 1567 1567 1567 1567 1567 1567
1500 1503 1506 1508 1511 1514 1516 1518 1520 1523 1524 1526 1528 1530 1532 1534 1536 1538 1540 1542 1544 1545 1547 1549 1551 1553 1554 1556 1557 1558 1560 1561 1562 1563 1564 1565 1565 1566 1566 1567 1567 1567 1567
1499 1501 1503 1506 1509 1511 1514 1516 1518 1521 1523 1525 1526 1528 1530 1532 1534 1536 1538 1540 1542 1544 1546 1548 1550 1551 1553 1555 1556 1557 1559 1560 1561 1562 1563 1564 1565 1565 1566 1566 1566 1566 1567
1497 1499 1501 1504 1506 1509 1511 1514 1516 1519 1521 1523 1525 1526 1528 1530 1532 1534 1536 1538 1540 1542 1544 1546 1548 1550 1551 1553 1555 1556 1557 1559 1560 1561 1562 1563 1564 1564 1565 1565 1566 1566 1566
1494 1497 1499 1502 1504 1506 1509 1512 1514 1516 1519 1521 1523 1525 1526 1528 1530 1532 1534 1536 1538 1540 1542 1544 1546 1548 1550 1551 1553 1555 1556 1557 1559 1560 1561 1561 1562 1563 1563 1564 1564 1565 1565
1492 1494 1497 1499 1502 1504 1507 1509 1512 1514 1516 1518 1520 1522 1524 1525 1527 1530 1531 1533 1535 1537 1539 1541 1544 1546 1548 1549 1551 1553 1554 1556 1557 1558 1559 1560 1561 1561 1562 1563 1563 1563 1564
1489 1492 1494 1497 1499 1502 1504 1506 1508 1511 1513 1516 1518 1520 1522 1523 1525 1527 1529 1531 1533 1535 1537 1539 1541 1543 1545 1547 1549 1550 1552 1553 1555 1556 1557 1557 1558 1559 1560 1561 1561 1562 1562
1487 1489 1492 1494 1497 1499 1501 1504 1506 1508 1510 1513 1515 1517 1519 1521 1523 1524 1526 1528 1530 1532 1534 1536 1538 1540 1542 1544 1546 1548 1549 1552 1551 1553 1554 1555 1556 1557 1558 1558 1559 1560 1560
1484 1487 1489 1491 1494 1496 1499 1501 1503 1505 1508 1510 1512 1514 1516 1518 1520 1521 1523 1525 1527 1529 1531 1533 1535 1537 1539 1541 1544 1546 1547 1547 1549 1550 1551 1552 1553 1554 1555 1556 1557 1557 1558
1482 1485 1487 1489 1491 1493 1496 1498 1500 1502 1504 1506 1509 1511 1513 1515 1516 1518 1520 1522 1524 1526 1528 1530 1532 1534 1536 1538 1541 1543 1545 1545 1546 1547 1549 1549 1550 1551 1552 1553 1554 1555 1556
1480 1482 1484 1486 1488 1490 1493 1495 1497 1499 1501 1503 1506 1507 1509 1511 1513 1515 1517 1519 1521 1523 1525 1527 1529 1531 1533 1535 1537 1539 1541 1542 1543 1545 1545 1546 1548 1548 1549 1550 1551 1552 1553
1478 1480 1481 1483 1485 1487 1489 1491 1493 1495 1497 1500 1502 1504 1506 1508 1510 1512 1514 1516 1518 1520 1522 1523 1525 1527 1529 1531 1533 1535 1537 1539 1540 1541 1542 1543 1544 1545 1546 1547 1548 1549 1550